StationID,Date,MaxTemp,MinTemp,Precipitation,Snowfall,SnowDepth
"US1AKAB0052","2015-09-30",,,,61.00,64.00
"US1AKAB0052","2015-10-01",,,0.00,0.00,13.00
"US1AKAB0052","2015-10-02",,,8.00,0.00,0.00
"US1AKAB0052","2015-10-03",,,66.00,0.00,0.00
"US1AKAB0052","2015-10-04",,,20.00,0.00,0.00
"US1AKAB0052","2015-10-05",,,0.00,0.00,0.00
"US1AKAB0052","2015-10-06",,,0.00,0.00,0.00
"US1AKAB0052","2015-10-07",,,0.00,0.00,0.00
"US1AKAB0052","2015-10-08",,,64.00,0.00,0.00
"US1AKAB0052","2015-10-09",,,0.00,0.00,0.00
"US1AKAB0052","2015-10-10",,,5.00,0.00,0.00
"US1AKAB0052","2015-10-11",,,3.00,0.00,0.00
"US1AKAB0052","2015-10-12",,,13.00,0.00,0.00
"US1AKAB0052","2015-10-13",,,8.00,0.00,0.00
"US1AKAB0052","2015-10-14",,,36.00,0.00,0.00
"US1AKAB0052","2015-10-15",,,18.00,0.00,0.00
"US1AKAB0052","2015-10-16",,,10.00,0.00,0.00
"US1AKAB0052","2015-10-17",,,114.00,0.00,0.00
"US1AKAB0052","2015-10-18",,,56.00,0.00,0.00
"US1AKAB0052","2015-10-19",,,58.00,0.00,0.00
"US1AKAB0052","2015-10-20",,,0.00,0.00,0.00
"US1AKAB0052","2015-10-21",,,0.00,0.00,0.00
"US1AKAB0052","2015-10-22",,,0.00,0.00,0.00
"US1AKAB0052","2015-10-23",,,0.00,0.00,0.00
"US1AKAB0052","2015-10-24",,,0.00,0.00,0.00
"US1AKAB0052","2015-10-25",,,8.00,0.00,0.00
"US1AKAB0052","2015-10-26",,,0.00,0.00,0.00
"US1AKAB0052","2015-10-27",,,0.00,0.00,0.00
"US1AKAB0052","2015-10-28",,,0.00,0.00,0.00
"US1AKAB0052","2015-10-29",,,3.00,0.00,0.00
"US1AKAB0052","2015-10-30",,,5.00,0.00,0.00
"US1AKAB0052","2015-10-31",,,81.00,66.00,64.00
"US1AKAB0052","2015-11-01",,,0.00,0.00,64.00
"US1AKAB0052","2015-11-02",,,3.00,5.00,64.00
"US1AKAB0052","2015-11-03",,,8.00,13.00,64.00
"US1AKAB0052","2015-11-04",,,5.00,8.00,51.00
"US1AKAB0052","2015-11-05",,,0.00,0.00,51.00
"US1AKAB0052","2015-11-06",,,0.00,0.00,51.00
"US1AKAB0052","2015-11-07",,,0.00,0.00,25.00
"US1AKAB0052","2015-11-08",,,0.00,0.00,25.00
"US1AKAB0052","2015-11-09",,,28.00,51.00,76.00
"US1AKAB0052","2015-11-10",,,3.00,3.00,76.00
"US1AKAB0052","2015-11-11",,,3.00,5.00,76.00
"US1AKAB0052","2015-11-12",,,0.00,0.00,64.00
"US1AKAB0052","2015-11-13",,,0.00,0.00,64.00
"US1AKAB0052","2015-11-14",,,0.00,0.00,64.00
"US1AKAB0052","2015-11-15",,,0.00,0.00,64.00
"US1AKAB0052","2015-11-16",,,0.00,0.00,64.00
"US1AKAB0052","2015-11-17",,,0.00,0.00,64.00
"US1AKAB0052","2015-11-18",,,0.00,0.00,64.00
"US1AKAB0052","2015-11-19",,,13.00,20.00,89.00
"US1AKAB0052","2015-11-20",,,30.00,36.00,127.00
"US1AKAB0052","2015-11-21",,,91.00,117.00,229.00
"US1AKAB0052","2015-11-22",,,3.00,5.00,216.00
"US1AKAB0052","2015-11-23",,,3.00,3.00,216.00
"US1AKAB0052","2015-11-24",,,5.00,0.00,140.00
"US1AKAB0052","2015-11-25",,,0.00,0.00,0.00
"US1AKAB0052","2015-11-26",,,51.00,0.00,0.00
"US1AKAB0052","2015-11-27",,,15.00,0.00,0.00
"US1AKAB0052","2015-11-28",,,0.00,0.00,0.00
"US1AKAB0052","2015-11-29",,,0.00,0.00,0.00
"US1AKAB0052","2015-11-30",,,0.00,0.00,0.00
"US1AKAB0052","2015-12-01",,,0.00,0.00,0.00
"US1AKAB0052","2015-12-02",,,3.00,8.00,13.00
"US1AKAB0052","2015-12-03",,,0.00,0.00,0.00
"US1AKAB0052","2015-12-04",,,5.00,10.00,13.00
"US1AKAB0052","2015-12-05",,,0.00,0.00,13.00
"US1AKAB0052","2015-12-06",,,0.00,0.00,13.00
"US1AKAB0052","2015-12-07",,,0.00,0.00,13.00
"US1AKAB0052","2015-12-08",,,0.00,0.00,13.00
"US1AKAB0052","2015-12-09",,,0.00,0.00,13.00
"US1AKAB0052","2015-12-10",,,0.00,0.00,13.00
"US1AKAB0052","2015-12-11",,,0.00,0.00,13.00
"US1AKAB0052","2015-12-12",,,0.00,0.00,13.00
"US1AKAB0052","2015-12-13",,,10.00,23.00,25.00
"US1AKAB0052","2015-12-14",,,0.00,0.00,25.00
"US1AKAB0052","2015-12-15",,,3.00,3.00,25.00
"US1AKAB0052","2015-12-16",,,3.00,5.00,25.00
"US1AKAB0052","2015-12-17",,,0.00,0.00,25.00
"US1AKAB0052","2015-12-18",,,0.00,0.00,25.00
"US1AKAB0052","2015-12-19",,,0.00,0.00,25.00
"US1AKAB0052","2015-12-20",,,0.00,0.00,25.00
"US1AKAB0052","2015-12-21",,,0.00,0.00,25.00
"US1AKAB0052","2015-12-22",,,0.00,0.00,25.00
"US1AKAB0052","2015-12-23",,,0.00,0.00,25.00
"US1AKAB0052","2015-12-24",,,0.00,0.00,25.00
"US1AKAB0052","2015-12-25",,,0.00,0.00,25.00
"US1AKAB0052","2015-12-26",,,0.00,0.00,25.00
"US1AKAB0052","2015-12-27",,,0.00,0.00,25.00
"US1AKAB0052","2015-12-28",,,0.00,0.00,25.00
"US1AKAB0052","2015-12-29",,,0.00,0.00,0.00
"US1AKAB0052","2015-12-30",,,18.00,0.00,0.00
"US1AKAB0052","2015-12-31",,,0.00,0.00,0.00
"US1AKAB0052","2016-01-01",,,8.00,3.00,0.00
"US1AKAB0052","2016-01-02",,,18.00,0.00,0.00
"US1AKAB0052","2016-01-03",,,0.00,0.00,0.00
"US1AKAB0052","2016-01-04",,,0.00,0.00,0.00
"US1AKAB0052","2016-01-05",,,0.00,0.00,0.00
"US1AKAB0052","2016-01-06",,,0.00,0.00,0.00
"US1AKAB0052","2016-01-07",,,0.00,0.00,0.00
"US1AKAB0052","2016-01-08",,,0.00,0.00,0.00
"US1AKAB0052","2016-01-09",,,0.00,0.00,0.00
"US1AKAB0052","2016-01-10",,,0.00,0.00,0.00
"US1AKAB0052","2016-01-11",,,0.00,0.00,0.00
"US1AKAB0052","2016-01-12",,,3.00,3.00,0.00
"US1AKAB0052","2016-01-13",,,30.00,43.00,51.00
"US1AKAB0052","2016-01-14",,,13.00,28.00,76.00
"US1AKAB0052","2016-01-15",,,3.00,3.00,76.00
"US1AKAB0052","2016-01-16",,,0.00,0.00,64.00
"US1AKAB0052","2016-01-17",,,0.00,0.00,64.00
"US1AKAB0052","2016-01-18",,,0.00,0.00,64.00
"US1AKAB0052","2016-01-19",,,0.00,0.00,51.00
"US1AKAB0052","2016-01-20",,,0.00,0.00,51.00
"US1AKAB0052","2016-01-21",,,0.00,0.00,51.00
"US1AKAB0052","2016-01-22",,,0.00,0.00,38.00
"US1AKAB0052","2016-01-23",,,0.00,0.00,38.00
"US1AKAB0052","2016-01-24",,,0.00,0.00,38.00
"US1AKAB0052","2016-01-25",,,0.00,0.00,25.00
"US1AKAB0052","2016-01-26",,,0.00,0.00,25.00
"US1AKAB0052","2016-01-27",,,0.00,0.00,13.00
"US1AKAB0052","2016-01-28",,,0.00,0.00,13.00
"US1AKAB0052","2016-01-29",,,25.00,0.00,0.00
"US1AKAB0052","2016-01-30",,,0.00,0.00,0.00
"US1AKAB0052","2016-01-31",,,0.00,0.00,0.00
"US1AKAB0052","2016-02-01",,,0.00,0.00,0.00
"US1AKAB0052","2016-02-02",,,0.00,0.00,0.00
"US1AKAB0052","2016-02-03",,,0.00,0.00,0.00
"US1AKAB0052","2016-02-04",,,0.00,0.00,0.00
"US1AKAB0052","2016-02-05",,,0.00,0.00,0.00
"US1AKAB0052","2016-02-06",,,0.00,0.00,0.00
"US1AKAB0052","2016-02-07",,,0.00,0.00,0.00
"US1AKAB0052","2016-02-08",,,0.00,0.00,0.00
"US1AKAB0052","2016-02-09",,,0.00,0.00,0.00
"US1AKAB0052","2016-02-10",,,0.00,0.00,0.00
"US1AKAB0052","2016-02-11",,,0.00,0.00,0.00
"US1AKAB0052","2016-02-12",,,0.00,0.00,0.00
"US1AKAB0052","2016-02-13",,,0.00,0.00,0.00
"US1AKAB0052","2016-02-14",,,0.00,0.00,0.00
"US1AKAB0052","2016-02-15",,,0.00,0.00,0.00
"US1AKAB0052","2016-02-16",,,0.00,0.00,0.00
"US1AKAB0052","2016-02-17",,,0.00,0.00,0.00
"US1AKAB0052","2016-02-18",,,0.00,0.00,0.00
"US1AKAB0052","2016-02-19",,,0.00,0.00,0.00
"US1AKAB0052","2016-02-20",,,0.00,0.00,0.00
"US1AKAB0052","2016-02-21",,,0.00,0.00,0.00
"US1AKAB0052","2016-02-22",,,43.00,33.00,13.00
"US1AKAB0052","2016-02-23",,,0.00,0.00,0.00
"US1AKAB0052","2016-02-24",,,0.00,0.00,0.00
"US1AKAB0052","2016-02-25",,,0.00,0.00,0.00
"US1AKAB0052","2016-02-26",,,0.00,0.00,0.00
"US1AKAB0052","2016-02-27",,,0.00,0.00,0.00
"US1AKAB0052","2016-02-28",,,0.00,0.00,0.00
"US1AKAB0052","2016-02-29",,,0.00,0.00,0.00
"US1AKAB0052","2016-03-01",,,0.00,0.00,0.00
"US1AKAB0052","2016-03-02",,,0.00,0.00,0.00
"US1AKAB0052","2016-03-03",,,0.00,0.00,0.00
"US1AKAB0052","2016-03-04",,,0.00,0.00,0.00
"US1AKAB0052","2016-03-05",,,15.00,41.00,38.00
"US1AKAB0052","2016-03-06",,,0.00,0.00,13.00
"US1AKAB0052","2016-03-07",,,0.00,0.00,0.00
"US1AKAB0052","2016-03-08",,,0.00,0.00,0.00
"US1AKAB0052","2016-03-09",,,0.00,0.00,0.00
"US1AKAB0052","2016-03-10",,,0.00,0.00,0.00
"US1AKAB0052","2016-03-11",,,0.00,0.00,0.00
"US1AKAB0052","2016-03-12",,,0.00,0.00,0.00
"US1AKAB0052","2016-03-13",,,0.00,0.00,0.00
"US1AKAB0052","2016-03-14",,,0.00,0.00,0.00
"US1AKAB0052","2016-03-15",,,0.00,0.00,0.00
"US1AKAB0052","2016-03-16",,,23.00,33.00,38.00
"US1AKAB0052","2016-03-17",,,0.00,0.00,13.00
"US1AKAB0052","2016-03-18",,,0.00,0.00,13.00
"US1AKAB0052","2016-03-19",,,0.00,0.00,0.00
"US1AKAB0052","2016-03-20",,,91.00,185.00,178.00
"US1AKAB0052","2016-03-21",,,0.00,0.00,152.00
"US1AKAB0052","2016-03-22",,,0.00,0.00,76.00
"US1AKAB0052","2016-03-23",,,0.00,0.00,51.00
"US1AKAB0052","2016-03-24",,,0.00,0.00,13.00
"US1AKAB0052","2016-03-25",,,0.00,0.00,0.00
"US1AKAB0052","2016-03-26",,,69.00,0.00,0.00
"US1AKAB0052","2016-03-27",,,0.00,0.00,0.00
"US1AKAB0052","2016-03-28",,,0.00,0.00,0.00
"US1AKAB0052","2016-03-29",,,38.00,0.00,0.00
"US1AKAB0052","2016-03-30",,,20.00,0.00,0.00
"US1AKAB0052","2016-03-31",,,3.00,0.00,0.00
"US1AKAB0052","2016-04-01",,,3.00,0.00,0.00
"US1AKAB0052","2016-04-02",,,0.00,0.00,0.00
"US1AKAB0052","2016-04-03",,,0.00,0.00,0.00
"US1AKAB0052","2016-04-04",,,0.00,0.00,0.00
"US1AKAB0052","2016-04-05",,,0.00,0.00,0.00
"US1AKAB0052","2016-04-06",,,0.00,0.00,0.00
"US1AKAB0052","2016-04-07",,,0.00,0.00,0.00
"US1AKAB0052","2016-04-08",,,0.00,0.00,0.00
"US1AKAB0052","2016-04-09",,,0.00,0.00,0.00
"US1AKAB0052","2016-04-10",,,0.00,0.00,0.00
"US1AKAB0052","2016-04-11",,,0.00,0.00,0.00
"US1AKAB0052","2016-04-12",,,0.00,0.00,0.00
"US1AKAB0052","2016-04-13",,,0.00,0.00,0.00
"US1AKAB0052","2016-04-14",,,0.00,0.00,0.00
"US1AKAB0052","2016-04-15",,,0.00,0.00,0.00
"US1AKAB0052","2016-04-16",,,0.00,0.00,0.00
"US1AKAB0052","2016-04-17",,,8.00,0.00,0.00
"US1AKAB0052","2016-04-18",,,0.00,0.00,0.00
"US1AKAB0052","2016-04-19",,,0.00,0.00,0.00
"US1AKAB0052","2016-04-20",,,0.00,0.00,0.00
"US1AKAB0052","2016-04-21",,,0.00,0.00,0.00
"US1AKAB0052","2016-04-22",,,0.00,0.00,0.00
"US1AKAB0052","2016-04-23",,,0.00,0.00,0.00
"US1AKAB0052","2016-04-24",,,0.00,0.00,0.00
"US1AKAB0052","2016-04-25",,,0.00,0.00,0.00
"US1AKAB0052","2016-04-26",,,0.00,0.00,0.00
"US1AKAB0052","2016-04-27",,,0.00,0.00,0.00
"US1AKAB0052","2016-04-28",,,0.00,0.00,0.00
"US1AKAB0052","2016-04-29",,,0.00,0.00,0.00
"US1AKAB0052","2016-04-30",,,0.00,0.00,0.00
"US1AKAB0052","2016-05-01",,,0.00,0.00,0.00
"US1AKAB0052","2016-05-02",,,0.00,0.00,0.00
"US1AKAB0052","2016-05-03",,,0.00,0.00,0.00
"US1AKAB0052","2016-05-04",,,0.00,0.00,0.00
"US1AKAB0052","2016-05-05",,,0.00,0.00,0.00
"US1AKAB0052","2016-05-06",,,3.00,0.00,0.00
"US1AKAB0052","2016-05-07",,,0.00,0.00,0.00
"US1AKAB0052","2016-05-08",,,0.00,0.00,0.00
"US1AKAB0052","2016-05-09",,,41.00,0.00,0.00
"US1AKAB0052","2016-05-10",,,13.00,0.00,0.00
"US1AKAB0052","2016-05-11",,,3.00,0.00,0.00
"US1AKAB0052","2016-05-12",,,0.00,0.00,0.00
"US1AKAB0052","2016-05-13",,,0.00,0.00,0.00
"US1AKAB0052","2016-05-14",,,0.00,0.00,0.00
"US1AKAB0052","2016-05-15",,,0.00,0.00,0.00
"US1AKAB0052","2016-05-16",,,0.00,0.00,0.00
"US1AKAB0052","2016-05-17",,,0.00,0.00,0.00
"US1AKAB0052","2016-05-18",,,0.00,0.00,0.00
"US1AKAB0052","2016-05-19",,,3.00,0.00,0.00
"US1AKAB0052","2016-05-20",,,3.00,0.00,0.00
"US1AKAB0052","2016-05-21",,,20.00,0.00,0.00
"US1AKAB0052","2016-05-22",,,8.00,0.00,0.00
"US1AKAB0052","2016-05-23",,,13.00,0.00,0.00
"US1AKAB0052","2016-05-24",,,0.00,0.00,0.00
"US1AKAB0052","2016-05-25",,,0.00,0.00,0.00
"US1AKAB0052","2016-05-26",,,0.00,0.00,0.00
"US1AKAB0052","2016-05-27",,,0.00,0.00,0.00
"US1AKAB0052","2016-05-28",,,0.00,0.00,0.00
"US1AKAB0052","2016-05-29",,,0.00,0.00,0.00
"US1AKAB0052","2016-05-30",,,13.00,0.00,0.00
"US1AKAB0052","2016-05-31",,,0.00,0.00,0.00
"US1AKAB0052","2016-06-01",,,0.00,0.00,0.00
"US1AKAB0052","2016-06-02",,,0.00,0.00,0.00
"US1AKAB0052","2016-06-03",,,0.00,0.00,0.00
"US1AKAB0052","2016-06-04",,,0.00,0.00,0.00
"US1AKAB0052","2016-06-05",,,0.00,0.00,0.00
"US1AKAB0052","2016-06-06",,,20.00,0.00,0.00
"US1AKAB0052","2016-06-07",,,236.00,0.00,0.00
"US1AKAB0052","2016-06-08",,,0.00,0.00,0.00
"US1AKAB0052","2016-06-09",,,0.00,0.00,0.00
"US1AKAB0052","2016-06-10",,,0.00,0.00,0.00
"US1AKAB0052","2016-06-11",,,10.00,0.00,0.00
"US1AKAB0052","2016-06-12",,,8.00,0.00,0.00
"US1AKAB0052","2016-06-13",,,0.00,0.00,0.00
"US1AKAB0052","2016-06-14",,,3.00,0.00,0.00
"US1AKAB0052","2016-06-15",,,0.00,0.00,0.00
"US1AKAB0052","2016-06-16",,,0.00,0.00,0.00
"US1AKAB0052","2016-06-17",,,0.00,0.00,0.00
"US1AKAB0052","2016-06-18",,,0.00,0.00,0.00
"US1AKAB0052","2016-06-19",,,0.00,0.00,0.00
"US1AKAB0052","2016-06-20",,,15.00,0.00,0.00
"US1AKAB0052","2016-06-21",,,8.00,0.00,0.00
"US1AKAB0052","2016-06-22",,,0.00,0.00,0.00
"US1AKAB0052","2016-06-23",,,0.00,0.00,0.00
"US1AKAB0052","2016-06-24",,,0.00,0.00,0.00
"US1AKAB0052","2016-06-25",,,41.00,0.00,0.00
"US1AKAB0052","2016-06-26",,,69.00,0.00,0.00
"US1AKAB0052","2016-06-27",,,0.00,0.00,0.00
"US1AKAB0052","2016-06-28",,,0.00,0.00,0.00
"US1AKAB0052","2016-06-29",,,0.00,0.00,0.00
"US1AKAB0052","2016-06-30",,,5.00,0.00,0.00
"US1AKAB0052","2016-07-01",,,61.00,0.00,0.00
"US1AKAB0052","2016-07-02",,,41.00,0.00,0.00
"US1AKAB0052","2016-07-03",,,0.00,0.00,0.00
"US1AKAB0052","2016-07-04",,,0.00,0.00,0.00
"US1AKAB0052","2016-07-05",,,0.00,0.00,0.00
"US1AKAB0052","2016-07-06",,,76.00,0.00,0.00
"US1AKAB0052","2016-07-07",,,58.00,0.00,0.00
"US1AKAB0052","2016-07-08",,,0.00,0.00,0.00
"US1AKAB0052","2016-07-09",,,0.00,0.00,0.00
"US1AKAB0052","2016-07-10",,,0.00,0.00,0.00
"US1AKAB0052","2016-07-11",,,0.00,0.00,0.00
"US1AKAB0052","2016-07-12",,,0.00,0.00,0.00
"US1AKAB0052","2016-07-13",,,0.00,0.00,0.00
"US1AKAB0052","2016-07-14",,,0.00,0.00,0.00
"US1AKAB0052","2016-07-15",,,0.00,0.00,0.00
"US1AKAB0052","2016-07-16",,,0.00,0.00,0.00
"US1AKAB0052","2016-07-17",,,0.00,0.00,0.00
"US1AKAB0052","2016-07-18",,,0.00,0.00,0.00
"US1AKAB0052","2016-07-19",,,0.00,0.00,0.00
"US1AKAB0052","2016-07-20",,,0.00,0.00,0.00
"US1AKAB0052","2016-07-21",,,8.00,0.00,0.00
"US1AKAB0052","2016-07-22",,,8.00,0.00,0.00
"US1AKAB0052","2016-07-23",,,119.00,0.00,0.00
"US1AKAB0052","2016-07-24",,,3.00,0.00,0.00
"US1AKAB0052","2016-07-25",,,140.00,0.00,0.00
"US1AKAB0052","2016-07-26",,,56.00,0.00,0.00
"US1AKAB0052","2016-07-27",,,46.00,0.00,0.00
"US1AKAB0052","2016-07-28",,,13.00,0.00,0.00
"US1AKAB0052","2016-07-29",,,0.00,0.00,0.00
"US1AKAB0052","2016-07-30",,,0.00,0.00,0.00
"US1AKAB0052","2016-07-31",,,0.00,0.00,0.00
"US1AKAB0052","2016-08-01",,,0.00,0.00,0.00
"US1AKAB0052","2016-08-02",,,46.00,0.00,0.00
"US1AKAB0052","2016-08-03",,,0.00,0.00,0.00
"US1AKAB0052","2016-08-04",,,3.00,0.00,0.00
"US1AKAB0052","2016-08-05",,,208.00,0.00,0.00
"US1AKAB0052","2016-08-06",,,41.00,0.00,0.00
"US1AKAB0052","2016-08-07",,,145.00,0.00,0.00
"US1AKAB0052","2016-08-08",,,71.00,0.00,0.00
"US1AKAB0052","2016-08-09",,,178.00,0.00,0.00
"US1AKAB0052","2016-08-10",,,3.00,0.00,0.00
"US1AKAB0052","2016-08-11",,,36.00,0.00,0.00
"US1AKAB0052","2016-08-12",,,58.00,0.00,0.00
"US1AKAB0052","2016-08-13",,,30.00,0.00,0.00
"US1AKAB0052","2016-08-14",,,8.00,0.00,0.00
"US1AKAB0052","2016-08-15",,,5.00,0.00,0.00
"US1AKAB0052","2016-08-16",,,0.00,0.00,0.00
"US1AKAB0052","2016-08-17",,,0.00,0.00,0.00
"US1AKAB0052","2016-08-18",,,28.00,0.00,0.00
"US1AKAB0052","2016-08-19",,,3.00,0.00,0.00
"US1AKAB0052","2016-08-20",,,0.00,0.00,0.00
"US1AKAB0052","2016-08-21",,,0.00,0.00,0.00
"US1AKAB0052","2016-08-22",,,5.00,0.00,0.00
"US1AKAB0052","2016-08-23",,,284.00,0.00,0.00
"US1AKAB0052","2016-08-24",,,20.00,0.00,0.00
"US1AKAB0052","2016-08-25",,,53.00,0.00,0.00
"US1AKAB0052","2016-08-26",,,33.00,0.00,0.00
"US1AKAB0052","2016-08-27",,,0.00,0.00,0.00
"US1AKAB0052","2016-08-28",,,0.00,0.00,0.00
"US1AKAB0052","2016-08-29",,,0.00,0.00,0.00
"US1AKAB0052","2016-08-30",,,0.00,0.00,0.00
"US1AKAB0052","2016-08-31",,,0.00,0.00,0.00
"US1AKAB0052","2016-09-01",,,0.00,0.00,0.00
"US1AKAB0052","2016-09-02",,,0.00,0.00,0.00
"US1AKAB0052","2016-09-03",,,0.00,0.00,0.00
"US1AKAB0052","2016-09-04",,,0.00,0.00,0.00
"US1AKAB0052","2016-09-05",,,61.00,0.00,0.00
"US1AKAB0052","2016-09-06",,,38.00,0.00,0.00
"US1AKAB0052","2016-09-07",,,8.00,0.00,0.00
"US1AKAB0052","2016-09-08",,,18.00,0.00,0.00
"US1AKAB0052","2016-09-09",,,10.00,0.00,0.00
"US1AKAB0052","2016-09-10",,,0.00,0.00,0.00
"US1AKAB0052","2016-09-11",,,0.00,0.00,0.00
"US1AKAB0052","2016-09-12",,,117.00,0.00,0.00
"US1AKAB0052","2016-09-13",,,33.00,0.00,0.00
"US1AKAB0052","2016-09-14",,,0.00,0.00,0.00
"US1AKAB0052","2016-09-15",,,66.00,0.00,0.00
"US1AKAB0052","2016-09-16",,,5.00,0.00,0.00
"US1AKAB0052","2016-09-17",,,46.00,0.00,0.00
"US1AKAB0052","2016-09-18",,,18.00,0.00,0.00
"US1AKAB0052","2016-09-19",,,0.00,0.00,0.00
"US1AKAB0052","2016-09-20",,,0.00,0.00,0.00
"US1AKAB0052","2016-09-21",,,0.00,0.00,0.00
"US1AKAB0052","2016-09-22",,,109.00,0.00,0.00
"US1AKAB0052","2016-09-23",,,94.00,0.00,0.00
"US1AKAB0052","2016-09-24",,,0.00,0.00,0.00
"US1AKAB0052","2016-09-25",,,10.00,0.00,0.00
"US1AKAB0052","2016-09-26",,,25.00,0.00,0.00
"US1AKAB0052","2016-09-27",,,0.00,0.00,0.00
"US1AKAB0052","2016-09-28",,,0.00,0.00,0.00
"US1AKAB0052","2016-09-29",,,0.00,0.00,0.00
"US1AKAB0052","2016-09-30",,,0.00,0.00,0.00
"US1AKAB0052","2016-10-01",,,0.00,0.00,0.00
"US1AKAB0052","2016-10-02",,,20.00,0.00,0.00
"US1AKAB0052","2016-10-03",,,5.00,0.00,0.00
"US1AKAB0052","2016-10-04",,,3.00,0.00,0.00
"US1AKAB0052","2016-10-05",,,0.00,0.00,0.00
"US1AKAB0052","2016-10-06",,,0.00,0.00,0.00
"US1AKAB0052","2016-10-07",,,0.00,0.00,0.00
"US1AKAB0052","2016-10-08",,,0.00,0.00,0.00
"US1AKAB0052","2016-10-09",,,0.00,0.00,0.00
"US1AKAB0052","2016-10-10",,,0.00,0.00,0.00
"US1AKAB0052","2016-10-11",,,0.00,0.00,0.00
"US1AKAB0052","2016-10-12",,,0.00,0.00,0.00
"US1AKAB0052","2016-10-13",,,0.00,0.00,0.00
"US1AKAB0052","2016-10-14",,,0.00,0.00,0.00
"US1AKAB0052","2016-10-15",,,0.00,0.00,0.00
"US1AKAB0052","2016-10-16",,,0.00,0.00,0.00
"US1AKAB0052","2016-10-17",,,0.00,0.00,0.00
"US1AKAB0052","2016-10-18",,,0.00,0.00,0.00
"US1AKAB0052","2016-10-19",,,0.00,0.00,0.00
"US1AKAB0052","2016-10-20",,,0.00,0.00,0.00
"US1AKAB0052","2016-10-21",,,117.00,74.00,76.00
"US1AKAB0052","2016-10-22",,,0.00,3.00,76.00
"US1AKAB0052","2016-10-23",,,0.00,0.00,64.00
"US1AKAB0052","2016-10-24",,,0.00,0.00,64.00
"US1AKAB0052","2016-10-25",,,0.00,0.00,64.00
"US1AKAB0052","2016-10-26",,,0.00,0.00,64.00
"US1AKAB0052","2016-10-27",,,0.00,0.00,51.00
"US1AKAB0052","2016-10-28",,,0.00,0.00,51.00
"US1AKAB0052","2016-10-29",,,0.00,0.00,38.00
"US1AKAB0052","2016-10-30",,,15.00,0.00,0.00
"US1AKAB0052","2016-10-31",,,3.00,0.00,0.00
"US1AKAB0052","2016-11-01",,,0.00,0.00,0.00
"US1AKAB0052","2016-11-02",,,0.00,0.00,0.00
"US1AKAB0052","2016-11-03",,,0.00,0.00,0.00
"US1AKAB0052","2016-11-04",,,0.00,0.00,0.00
"US1AKAB0052","2016-11-05",,,0.00,0.00,0.00
"US1AKAB0052","2016-11-06",,,0.00,0.00,0.00
"US1AKAB0052","2016-11-07",,,8.00,13.00,13.00
"US1AKAB0052","2016-11-08",,,0.00,0.00,13.00
"US1AKAB0052","2016-11-09",,,0.00,0.00,0.00
"US1AKAB0052","2016-11-10",,,0.00,0.00,0.00
"US1AKAB0052","2016-11-11",,,23.00,0.00,0.00
"US1AKAB0052","2016-11-12",,,0.00,0.00,0.00
"US1AKAB0052","2016-11-13",,,0.00,0.00,0.00
"US1AKAB0052","2016-11-14",,,0.00,0.00,0.00
"US1AKAB0052","2016-11-15",,,18.00,0.00,0.00
"US1AKAB0052","2016-11-16",,,0.00,0.00,0.00
"US1AKAB0052","2016-11-17",,,0.00,0.00,0.00
"US1AKAB0052","2016-11-18",,,0.00,0.00,0.00
"US1AKAB0052","2016-11-19",,,0.00,0.00,0.00
"US1AKAB0052","2016-11-20",,,0.00,0.00,0.00
"US1AKAB0052","2016-11-21",,,0.00,0.00,0.00
"US1AKAB0052","2016-11-22",,,0.00,0.00,0.00
"US1AKAB0052","2016-11-23",,,0.00,0.00,0.00
"US1AKAB0052","2016-11-24",,,0.00,0.00,0.00
"US1AKAB0052","2016-11-25",,,0.00,0.00,0.00
"US1AKAB0052","2016-11-26",,,5.00,10.00,13.00
"US1AKAB0052","2016-11-27",,,0.00,0.00,13.00
"US1AKAB0052","2016-11-28",,,0.00,0.00,13.00
"US1AKAB0052","2016-11-29",,,0.00,0.00,0.00
"US1AKAB0052","2016-11-30",,,0.00,0.00,0.00
"US1AKAB0052","2016-12-01",,,61.00,97.00,102.00
"US1AKAB0052","2016-12-02",,,51.00,86.00,178.00
"US1AKAB0052","2016-12-03",,,0.00,0.00,152.00
"US1AKAB0052","2016-12-04",,,0.00,0.00,140.00
"US1AKAB0052","2016-12-05",,,0.00,0.00,127.00
"US1AKAB0052","2016-12-06",,,0.00,0.00,127.00
"US1AKAB0052","2016-12-07",,,0.00,0.00,114.00
"US1AKAB0052","2016-12-08",,,0.00,0.00,114.00
"US1AKAB0052","2016-12-09",,,5.00,10.00,114.00
"US1AKAB0052","2016-12-10",,,0.00,0.00,102.00
"US1AKAB0052","2016-12-11",,,0.00,0.00,102.00
"US1AKAB0052","2016-12-12",,,0.00,0.00,102.00
"US1AKAB0052","2016-12-13",,,0.00,3.00,102.00
"US1AKAB0052","2016-12-14",,,0.00,0.00,102.00
"US1AKAB0052","2016-12-15",,,0.00,0.00,102.00
"US1AKAB0052","2016-12-16",,,33.00,46.00,152.00
"US1AKAB0052","2016-12-17",,,8.00,0.00,127.00
"US1AKAB0052","2016-12-18",,,43.00,0.00,127.00
"US1AKAB0052","2016-12-19",,,0.00,0.00,127.00
"US1AKAB0052","2016-12-20",,,28.00,48.00,165.00
"US1AKAB0052","2016-12-21",,,0.00,0.00,152.00
"US1AKAB0052","2016-12-22",,,0.00,0.00,152.00
"US1AKAB0052","2016-12-23",,,0.00,0.00,152.00
"US1AKAB0052","2016-12-24",,,0.00,0.00,152.00
"US1AKAB0052","2016-12-25",,,0.00,0.00,152.00
"US1AKAB0052","2016-12-26",,,0.00,0.00,152.00
"US1AKAB0052","2016-12-27",,,0.00,0.00,140.00
"US1AKAB0052","2016-12-28",,,28.00,46.00,191.00
"US1AKAB0052","2016-12-29",,,10.00,5.00,178.00
"US1AKAB0052","2016-12-30",,,89.00,56.00,229.00
"US1AKAB0052","2016-12-31",,,0.00,0.00,216.00
"US1AKAB0052","2017-01-01",,,0.00,0.00,216.00
"US1AKAB0052","2017-01-02",,,0.00,0.00,203.00
"US1AKAB0052","2017-01-03",,,0.00,0.00,203.00
"US1AKAB0052","2017-01-04",,,0.00,0.00,203.00
"US1AKAB0052","2017-01-05",,,0.00,0.00,203.00
"US1AKAB0052","2017-01-06",,,0.00,0.00,203.00
"US1AKAB0052","2017-01-07",,,0.00,0.00,203.00
"US1AKAB0052","2017-01-08",,,0.00,0.00,203.00
"US1AKAB0052","2017-01-09",,,0.00,0.00,203.00
"US1AKAB0052","2017-01-10",,,0.00,0.00,203.00
"US1AKAB0052","2017-01-11",,,0.00,0.00,203.00
"US1AKAB0052","2017-01-12",,,0.00,0.00,203.00
"US1AKAB0052","2017-01-13",,,0.00,0.00,203.00
"US1AKAB0052","2017-01-14",,,102.00,109.00,305.00
"US1AKAB0052","2017-01-15",,,8.00,13.00,305.00
"US1AKAB0052","2017-01-16",,,30.00,38.00,330.00
"US1AKAB0052","2017-01-17",,,43.00,81.00,394.00
"US1AKAB0052","2017-01-18",,,0.00,0.00,381.00
"US1AKAB0052","2017-01-19",,,0.00,0.00,368.00
"US1AKAB0052","2017-01-20",,,0.00,0.00,356.00
"US1AKAB0052","2017-01-21",,,66.00,86.00,432.00
"US1AKAB0052","2017-01-22",,,127.00,226.00,584.00
"US1AKAB0052","2017-01-23",,,0.00,8.00,546.00
"US1AKAB0052","2017-01-24",,,38.00,48.00,533.00
"US1AKAB0052","2017-01-25",,,0.00,0.00,521.00
"US1AKAB0052","2017-01-26",,,0.00,0.00,495.00
"US1AKAB0052","2017-01-27",,,5.00,0.00,483.00
"US1AKAB0052","2017-01-28",,,48.00,61.00,533.00
"US1AKAB0052","2017-01-29",,,13.00,25.00,533.00
"US1AKAB0052","2017-01-30",,,0.00,0.00,508.00
"US1AKAB0052","2017-01-31",,,0.00,0.00,483.00
"US1AKAB0052","2017-02-01",,,0.00,0.00,483.00
"US1AKAB0052","2017-02-02",,,0.00,0.00,470.00
"US1AKAB0052","2017-02-03",,,0.00,0.00,470.00
"US1AKAB0052","2017-02-04",,,0.00,0.00,457.00
"US1AKAB0052","2017-02-05",,,0.00,0.00,457.00
"US1AKAB0052","2017-02-06",,,0.00,0.00,445.00
"US1AKAB0052","2017-02-07",,,0.00,0.00,432.00
"US1AKAB0052","2017-02-08",,,0.00,0.00,432.00
"US1AKAB0052","2017-02-09",,,41.00,94.00,521.00
"US1AKAB0052","2017-02-10",,,25.00,33.00,533.00
"US1AKAB0052","2017-02-11",,,28.00,38.00,546.00
"US1AKAB0052","2017-02-12",,,0.00,0.00,521.00
"US1AKAB0052","2017-02-13",,,0.00,0.00,508.00
"US1AKAB0052","2017-02-14",,,5.00,5.00,508.00
"US1AKAB0052","2017-02-15",,,46.00,56.00,559.00
"US1AKAB0052","2017-02-16",,,0.00,3.00,546.00
"US1AKAB0052","2017-02-17",,,5.00,10.00,546.00
"US1AKAB0052","2017-02-18",,,5.00,10.00,546.00
"US1AKAB0052","2017-02-19",,,20.00,38.00,584.00
"US1AKAB0052","2017-02-20",,,13.00,51.00,610.00
"US1AKAB0052","2017-02-21",,,3.00,13.00,597.00
"US1AKAB0052","2017-02-22",,,25.00,25.00,597.00
"US1AKAB0052","2017-02-23",,,3.00,5.00,572.00
"US1AKAB0052","2017-02-24",,,0.00,3.00,572.00
"US1AKAB0052","2017-02-25",,,8.00,5.00,559.00
"US1AKAB0052","2017-02-26",,,0.00,0.00,546.00
"US1AKAB0052","2017-02-27",,,0.00,0.00,546.00
"US1AKAB0052","2017-02-28",,,8.00,10.00,533.00
"US1AKAB0052","2017-03-01",,,0.00,0.00,533.00
"US1AKAB0052","2017-03-02",,,0.00,0.00,533.00
"US1AKAB0052","2017-03-03",,,0.00,0.00,533.00